OBJECT V, 57185

Orbit data source: Space-Track

You're viewing an Uncataloged Satellite

Recently launched and/or uncataloged satellites may have evolving metadata. Metadata may include but not limited to: Owner, Maufacturer, Bus, Motor, and Mission.

OBJECT V, 57185 is a satellite in SSO that was launched on Tue, 27 Jun 2023 UTC via a SOYUZ-2-1B launch vehicle from the Vostochny Cosmodrome (VOSTO). Unknown objects in Earth's orbit typically refer to objects detected orbiting the Earth but have not yet been identified or cataloged. These objects could be anything from previously untracked satellites, spent rocket stages, debris from satellite collisions, or even natural meteoroids temporarily captured by Earth's gravity.

Loading next visibility...
Identifier
57185, 2023-091V
Orbit
SSO
Country
Flag of TBDTBD
Related business
None
Manufacturer
Unknown
Mission
Operational Commercial Technology
Bus & Motor
Unknown
Mass
Unknown
Launch date (UTC)
2023-06-27 (3 years ago)
Launch vehicle
SOYUZ-2-1B
Launch site
Vostochny Cosmodrome (VOSTO)
Object type
Unknown
Shape & HBR
Box, 0.2 m
Radar Cross Section
0.035 m², Medium (>0.1 m² and < 1m²)

Expand to show TLE details & history
Last TLE update: 13 hours ago

TLE from 13 hours ago
0 OBJECT V
1 57185U 23091V   26207.60746880  .00023353  00000-0  56877-3 0  9999
2 57185  97.5042 279.3315 0004586 289.6026  70.4724 15.40921220170841
Epoch: 2026-07-26T14:34Z
TLE epoch observation values (Epoch: 2026-07-26T14:34:45.304Z)
Latitude
-0.0001°
Longitude
116.33978°
Altitude
445.46 km
Speed
7.645 km/s
True Right ascension
18h 37m 19s
True Declination
0° 00' 00"
Sunlit
Object was in full shadow at epoch
Visualization orbit readout
Latitude
Unknown
Longitude
Unknown
Altitude
Unknown
Speed
Unknown
Apparent Right ascension
Unknown
Apparent Declination
Unknown
Sunlit
N/A
Visualization observer readout
Local Sidereal Time
17:05:05
Azimuth
Unknown
Elevation
Unknown
Doppler factor
Unknown
Orbital elements
Apogee altitude
443.458 km
Perigee altitude
437.205 km
Semi-major axis
6,818.468 km
Eccentricity
0.00046
Inclination
97.5042°
RAAN
279.3315°
Arg. of periapsis
289.6026°
True anomaly
70.52194°
Mean anomaly
70.4724°
Eccentric anomaly
70.49717°
Mean motion
3.8549 °/min
Orbital period
93.39 mins
BSTAR
0.00056877
Loading maneuver chart data...
Computing Atmospheric mass density...
Loading historical data...
Loading historical data...
Loading historical data...
Loading historical data...
Loading historical data...
Loading historical data...
Loading historical data...

Documentation

Showing up to 5 results
|